Theta_e
298 297 296 295 294 293 293 293 293 293 293 293 293 294 294 293 293 293 293 293 292 292 292 292 292 292 292 291 292 292 291 291 291 291 291 291 290 290 290 290 290 289 289 289 288 288 288 289 288 288 288 288 288 288 289 289 289 289 289 289 289 289 290 291 292 292 291 292 294 294 294 296 296 297 298 299 300 301 301 301 302 302 303 303 304
297 295 295 294 293 292 292 292 292 291 291 291 292 293 293 293 293 293 293 292 292 293 293 292 293 292 292 291 291 290 290 290 290 290 290 290 290 290 290 290 289 289 288 289 288 288 288 288 288 288 288 288 288 288 288 288 288 289 289 288 290 289 288 290 291 292 290 289 288 288 291 295 296 297 297 300 301 301 301 301 302 302 302 303 304
294 294 293 292 292 291 290 291 291 292 292 291 293 293 293 293 293 293 293 292 293 292 293 292 292 291 291 291 290 290 290 289 289 290 289 289 290 290 289 289 289 288 288 288 288 288 288 288 287 288 288 287 287 288 288 288 289 288 288 287 287 288 288 291 291 292 288 289 289 288 287 287 292 295 299 301 300 300 300 300 300 301 302 303 303
293 292 291 291 291 290 289 289 290 291 291 290 291 292 292 292 292 293 292 292 292 292 291 292 292 291 291 290 289 288 288 289 289 290 289 289 289 289 289 289 288 287 288 288 287 287 287 287 287 287 287 288 288 287 287 287 288 288 288 287 287 285 287 288 291 290 289 289 285 286 286 287 286 291 291 293 295 296 296 298 300 300 301 302 302
293 292 291 290 290 289 289 289 290 290 290 290 291 291 290 292 293 293 292 292 292 291 291 291 290 290 290 289 288 288 288 288 288 288 289 288 287 289 288 288 287 287 287 287 286 286 287 287 287 287 287 288 287 287 287 287 287 287 287 286 286 286 285 287 288 290 290 291 288 286 285 285 285 287 289 290 295 296 297 298 298 299 299 300 301
295 293 292 291 290 290 289 289 289 289 290 291 291 291 291 292 293 292 292 292 291 291 291 290 289 289 288 287 287 287 287 288 287 288 288 288 287 288 287 287 287 287 287 286 286 286 286 287 287 286 287 287 287 287 286 287 287 287 287 286 286 286 285 285 285 289 289 289 290 289 288 284 285 287 287 285 292 293 294 296 297 299 300 299 300
296 295 293 291 290 290 289 288 288 288 290 291 291 291 291 293 292 292 292 291 291 291 291 290 289 289 288 288 288 288 287 288 288 287 287 287 286 286 287 287 287 286 286 286 286 286 286 286 286 286 286 286 286 286 286 286 286 286 286 286 286 286 286 284 285 286 288 288 288 288 288 289 289 286 284 286 284 290 293 293 294 296 297 297 297
295 295 294 292 291 290 289 289 288 289 290 290 290 290 290 291 291 291 291 291 291 291 290 289 289 289 288 287 287 287 287 287 287 286 286 286 286 286 286 286 286 286 285 285 285 285 285 285 285 286 286 286 286 286 286 286 286 286 286 286 285 285 285 284 285 286 285 285 288 287 287 288 289 289 289 287 285 284 286 292 294 294 295 296 297
296 295 294 293 291 290 290 289 289 289 289 289 290 290 290 291 290 291 290 290 290 290 289 289 288 289 288 287 286 287 287 286 286 286 285 285 285 285 285 285 285 285 285 285 284 284 284 284 285 285 285 285 284 285 286 286 285 285 285 285 285 285 285 285 285 285 285 285 285 286 287 287 287 288 289 289 286 284 284 286 287 292 293 294 295
296 296 295 294 293 291 291 290 288 288 289 290 290 290 290 290 289 289 289 289 289 288 288 288 288 287 287 287 286 286 286 285 286 285 285 285 284 284 285 285 285 285 284 284 284 284 284 284 284 284 284 285 284 284 285 285 285 285 285 284 284 284 285 285 284 284 285 285 286 285 284 284 285 285 286 286 286 286 283 284 286 287 286 290 294
294 295 295 294 293 292 290 289 288 288 289 289 290 289 289 289 289 288 288 289 288 288 287 287 287 287 286 286 286 285 286 285 284 284 284 284 283 283 284 284 284 283 284 283 284 283 283 283 283 284 283 283 283 284 284 284 284 284 284 284 284 283 283 284 283 284 284 284 285 284 283 283 283 282 283 284 284 283 284 284 286 287 287 288 291
294 292 292 293 291 290 289 288 288 287 288 288 289 289 289 289 289 288 287 287 287 287 286 286 286 286 286 286 285 285 285 283 283 283 283 283 283 283 283 283 283 283 283 283 283 283 283 283 283 283 282 283 283 283 283 283 283 284 284 283 283 284 283 282 282 282 283 283 284 284 284 284 283 283 283 283 282 282 283 282 284 286 287 288 291
292 291 291 290 290 288 287 288 287 287 286 287 288 288 288 288 288 287 286 286 286 286 286 285 285 285 285 285 285 284 284 283 283 283 283 282 282 282 282 281 282 282 282 282 283 282 282 281 282 282 282 282 282 283 283 283 283 283 282 282 283 282 282 282 281 282 282 282 282 283 284 283 282 284 283 282 282 283 282 281 283 286 284 285 288
291 291 290 290 289 288 288 287 286 286 286 287 288 287 287 287 288 287 286 286 286 285 285 285 285 285 285 284 284 284 283 283 282 282 282 282 282 281 281 281 281 281 281 281 282 282 281 281 281 281 282 282 282 282 282 282 282 282 282 282 282 282 282 281 281 281 281 281 282 281 281 281 282 282 282 281 281 282 282 281 281 283 284 283 287
290 290 290 289 289 288 287 287 287 286 286 287 287 287 287 287 287 287 285 285 285 285 285 284 284 284 284 284 283 282 282 282 282 282 281 281 281 280 280 280 280 280 281 281 281 281 280 281 281 281 281 281 281 281 282 282 282 282 281 281 281 281 281 280 280 280 280 280 280 280 280 280 280 281 281 280 282 282 281 281 281 278 279 282 282
289 289 289 289 289 288 288 287 287 286 286 287 286 286 286 286 287 287 285 285 285 284 284 284 284 284 283 282 282 281 281 281 280 280 281 281 280 280 279 280 280 280 280 280 280 280 280 280 280 280 280 281 281 281 281 281 281 281 281 280 280 281 280 280 280 280 279 280 279 280 279 279 280 280 280 281 282 282 282 282 281 279 277 276 281
289 289 288 288 288 288 288 287 287 287 286 286 286 286 286 286 286 286 285 284 284 284 284 284 283 283 282 281 281 280 280 280 280 279 279 279 279 279 279 279 279 279 279 280 279 280 279 279 279 279 280 280 280 280 280 280 280 280 280 280 279 280 280 279 279 279 279 279 279 279 279 279 279 280 280 281 281 281 281 281 281 280 280 278 277
289 288 288 288 288 287 287 287 287 286 286 286 286 287 286 286 286 285 284 283 284 283 283 283 282 281 281 280 280 279 279 279 279 278 278 278 278 278 278 278 278 279 279 279 279 279 279 279 278 278 279 279 279 279 279 279 279 278 279 279 279 280 279 279 279 279 278 279 279 278 279 278 279 279 280 280 280 279 280 280 280 280 281 279 279
289 288 287 287 287 287 287 287 287 287 287 287 286 286 286 286 286 286 284 284 283 283 283 282 281 280 280 279 279 279 278 278 278 278 277 277 277 278 278 278 278 278 278 278 278 278 277 277 278 277 277 277 278 278 278 278 278 277 278 278 279 279 278 278 278 278 278 278 278 277 278 277 278 278 278 278 278 279 279 279 280 281 280 280 280
289 288 287 287 287 287 287 286 286 286 286 286 286 286 285 285 285 285 284 284 283 282 281 280 280 279 279 279 278 278 278 277 277 277 277 277 277 277 277 277 277 277 277 277 277 276 276 276 276 276 276 276 276 277 277 277 277 277 277 277 278 278 278 277 277 278 278 277 277 277 277 277 277 278 277 278 278 279 279 279 280 280 280 281 281
290 288 287 287 287 287 287 287 287 287 286 286 285 285 285 285 284 284 283 282 281 281 280 280 279 279 278 278 277 277 277 277 276 276 276 276 276 277 277 277 277 276 276 276 275 276 276 275 275 275 275 276 275 276 276 276 276 275 276 276 276 276 276 276 276 276 277 277 276 276 276 276 277 276 276 276 277 278 278 279 279 279 278 280 280
291 289 288 288 287 287 287 286 286 286 285 285 285 285 284 284 284 284 283 282 281 280 280 279 279 278 278 277 277 277 276 276 276 276 275 276 276 276 276 276 275 275 275 275 275 275 275 275 275 274 275 275 275 275 275 274 274 274 274 274 274 274 274 274 274 274 274 275 276 275 275 275 275 275 275 274 275 275 276 277 277 277 277 278 279
291 290 289 288 287 287 286 286 285 285 285 285 284 284 284 284 283 283 282 281 280 280 279 279 278 278 277 277 277 276 276 276 275 276 275 276 276 276 276 275 275 275 275 275 275 275 274 274 274 274 274 273 273 273 273 273 272 272 272 272 272 272 272 271 271 272 272 273 273 273 273 273 274 273 273 273 274 274 275 275 276 277 276 277 277
291 290 288 287 287 286 285 285 285 285 284 284 284 284 284 283 283 282 281 280 280 279 279 278 278 277 277 276 276 276 275 275 275 276 275 276 275 275 275 275 274 275 274 274 274 274 274 273 273 272 272 272 272 272 271 271 270 270 270 270 270 270 270 270 270 270 270 271 271 270 270 271 272 271 272 272 272 273 274 275 275 276 275 275 276
289 288 287 286 285 285 285 285 285 284 284 284 283 283 283 283 282 281 281 280 279 279 278 278 277 276 276 276 276 276 275 275 275 276 275 275 275 275 275 274 274 273 273 273 273 273 272 271 271 271 271 270 270 270 270 269 269 269 269 269 269 269 269 269 269 269 270 269 269 269 269 270 271 270 270 271 272 272 273 274 274 274 274 275 275
289 288 286 285 285 285 285 285 284 284 284 283 283 283 283 282 282 281 280 279 278 278 278 277 277 276 276 275 276 275 275 275 275 275 274 274 274 274 274 273 273 272 271 271 271 270 270 270 270 270 270 269 269 269 269 269 269 269 268 268 268 268 268 268 268 268 268 268 268 268 269 269 269 269 269 270 271 271 272 273 274 274 274 274 274
288 287 287 286 285 284 285 285 284 284 284 283 283 283 282 281 281 280 279 278 278 277 277 276 276 276 275 275 275 275 275 275 275 274 274 274 273 273 272 271 271 270 269 269 269 269 269 269 269 269 269 269 268 268 268 268 268 268 268 268 267 267 268 268 268 268 268 269 269 269 269 270 270 270 270 270 271 271 272 272 273 273 274 273 273
289 288 287 286 285 285 284 284 284 283 283 283 283 283 282 281 280 279 278 278 277 276 276 276 275 275 275 275 275 275 275 274 274 273 273 272 272 271 270 269 269 268 268 268 268 268 268 268 268 268 269 269 268 268 268 269 269 269 268 267 267 267 268 268 268 269 269 269 269 269 270 270 271 271 271 271 271 271 272 272 273 273 273 273 273
290 288 287 286 285 285 284 284 284 283 283 282 282 282 281 280 279 278 277 277 276 276 275 275 275 275 275 275 275 274 274 273 272 271 270 270 269 269 268 267 267 267 267 267 267 267 267 267 268 268 268 268 268 268 268 268 268 268 268 268 268 268 268 268 268 269 270 270 270 270 270 271 271 273 275 275 275 275 272 271 273 273 273 273 273
291 289 287 287 286 286 285 284 283 283 282 282 282 281 280 279 278 277 277 276 276 275 274 274 274 275 275 274 274 273 272 271 270 269 269 268 267 267 266 266 265 266 266 266 266 266 267 267 267 268 268 268 268 268 269 270 271 270 270 270 270 270 270 269 269 269 270 270 271 271 272 274 274 275 275 276 277 277 277 275 274 274 274 273 273
293 291 288 287 286 286 285 284 283 283 282 282 281 281 280 279 277 276 276 275 275 274 274 274 274 274 274 273 272 271 271 269 269 268 267 266 266 265 265 265 265 265 265 266 266 266 267 267 267 267 267 267 268 268 270 271 273 273 271 270 270 270 270 270 270 269 269 270 271 271 272 273 274 275 274 277 277 278 278 278 279 279 279 276 274
296 292 291 288 286 285 284 284 283 283 282 282 281 280 279 278 277 276 275 275 274 274 273 274 274 273 272 272 271 270 269 268 267 266 265 265 264 264 264 264 264 264 265 266 266 266 267 267 267 267 267 267 267 269 271 272 273 273 273 271 271 270 270 270 270 270 270 270 271 271 272 273 273 274 274 274 275 277 278 279 279 279 279 280 280
297 297 292 289 287 286 285 284 284 283 282 282 281 279 278 277 276 276 274 273 273 273 273 273 273 272 271 271 270 268 267 266 266 265 264 263 263 263 263 263 264 265 265 265 266 266 266 267 267 267 266 267 267 269 271 272 273 274 274 273 271 271 271 271 271 271 271 271 271 271 272 273 273 276 275 275 275 275 277 278 279 279 279 280 280
298 298 293 290 288 287 286 285 284 283 283 282 281 279 279 277 275 274 273 273 272 272 272 272 271 271 270 270 268 267 267 266 265 264 264 263 263 263 264 264 264 265 265 265 265 265 266 266 266 266 266 267 267 269 271 272 273 274 274 274 272 271 271 271 270 270 270 271 271 271 271 272 273 274 275 275 275 275 275 275 275 276 276 277 279
298 296 292 290 288 286 285 284 283 282 281 280 279 278 276 275 274 272 272 272 272 272 271 271 270 270 269 268 267 266 266 265 264 263 263 262 262 263 263 264 265 265 265 265 265 265 265 265 265 266 266 266 266 270 272 272 273 274 275 275 272 271 270 270 271 271 271 271 272 272 272 272 272 273 274 275 275 276 276 275 275 275 276 276 276
297 295 293 288 286 285 284 283 282 281 279 279 278 276 274 273 273 272 271 271 271 271 271 271 269 269 268 268 266 266 265 264 264 263 262 262 263 263 263 264 264 264 265 265 265 265 265 264 265 265 265 265 266 270 271 272 273 274 275 271 271 271 271 271 271 271 271 271 272 272 271 272 272 273 275 278 278 277 276 275 275 275 276 276 276
296 294 292 289 287 285 284 282 281 279 277 277 276 274 273 271 271 271 271 271 271 270 270 270 269 268 267 267 266 265 264 263 263 262 262 262 262 262 263 264 263 264 264 264 264 264 265 265 264 265 265 265 266 268 271 272 273 274 273 271 271 271 271 271 271 271 272 271 272 272 272 272 272 272 275 278 279 279 276 276 276 275 276 276 276
291 288 287 287 286 284 283 281 278 277 276 275 274 273 271 271 270 270 270 270 270 270 270 269 268 268 267 266 266 265 263 263 262 261 261 262 262 263 263 263 263 263 263 264 264 264 264 265 264 264 265 264 265 268 271 272 273 274 274 271 271 270 270 271 271 271 272 271 272 274 274 272 272 272 276 277 278 277 275 275 276 275 275 275 276
288 287 285 284 283 282 280 279 277 275 275 274 273 272 271 270 269 269 269 269 269 270 269 268 268 267 266 265 264 263 263 262 261 261 261 260 261 262 263 263 263 263 263 264 264 264 264 264 264 264 266 266 265 267 271 272 273 274 273 272 271 271 270 270 271 271 272 272 272 273 274 274 273 274 277 278 279 278 276 276 276 276 275 275 277
284 284 284 282 281 279 277 277 276 275 274 273 273 272 271 270 269 270 269 269 269 270 269 268 267 265 264 263 262 261 261 260 260 260 261 261 262 262 262 262 262 263 263 264 263 263 263 263 264 265 265 267 267 267 268 272 273 274 275 272 272 271 270 270 271 271 270 272 272 272 273 275 276 277 277 278 279 279 276 276 276 275 275 275 278
282 282 281 279 279 279 277 276 276 274 272 272 272 271 270 270 269 269 269 269 269 268 267 266 265 263 262 262 261 260 260 260 260 260 261 261 262 262 261 261 261 262 262 262 262 262 263 264 265 266 267 267 267 267 268 272 273 274 275 275 272 272 272 271 271 271 271 270 270 270 271 274 276 276 277 278 278 279 279 276 276 276 276 278 280
282 280 279 278 277 277 276 275 274 272 272 272 271 271 270 269 269 269 270 269 267 266 265 264 263 262 261 260 260 260 259 259 259 260 260 261 262 261 261 261 262 262 261 261 261 262 263 265 266 266 267 267 269 270 269 271 273 274 275 276 273 273 273 272 271 270 270 270 270 270 270 272 275 275 276 277 277 278 279 276 276 279 280 281 279
278 278 278 277 276 275 275 274 272 271 271 272 272 270 269 269 269 269 268 266 265 264 263 262 261 260 259 259 259 259 259 259 259 260 259 260 261 260 260 260 260 260 261 261 262 263 264 264 265 267 268 268 268 269 271 270 273 274 275 276 277 275 277 273 271 269 269 269 270 270 270 273 275 275 276 277 277 278 278 276 279 280 280 281 281
278 278 277 276 275 274 272 270 270 270 270 272 271 269 268 268 268 266 265 264 263 262 262 260 259 259 259 258 258 259 259 260 259 260 260 260 260 260 260 261 261 261 262 262 263 264 264 264 265 266 267 268 268 269 270 272 272 274 276 277 277 277 276 273 272 270 270 270 269 270 271 275 276 276 277 278 278 278 277 279 280 280 281 281 279
276 276 276 275 274 272 270 269 269 269 270 271 271 269 268 268 266 264 263 262 262 261 260 259 259 258 258 258 258 259 259 259 259 259 260 260 259 260 261 261 261 261 262 262 263 263 263 264 265 265 266 267 268 268 269 271 273 274 276 276 276 276 276 275 270 270 270 270 273 275 274 274 274 275 276 277 276 277 278 278 279 280 280 278 278
276 275 275 274 273 271 269 267 267 268 269 270 270 270 268 266 264 263 263 262 260 259 259 258 258 258 258 258 258 258 258 258 259 260 259 261 260 260 261 261 262 262 262 262 262 263 264 265 265 265 265 266 267 268 269 270 272 273 274 275 275 275 274 274 273 271 273 274 273 272 272 272 272 272 271 272 273 274 276 277 278 279 278 278 278
274 275 273 272 270 268 267 266 266 267 268 269 269 270 267 264 263 263 262 260 259 259 258 258 258 257 257 258 259 259 259 258 258 260 260 260 261 261 261 261 262 262 262 262 263 264 265 265 264 265 265 266 267 268 269 270 271 271 271 272 272 270 272 272 269 269 271 268 267 268 268 271 270 271 272 272 273 274 275 276 277 278 278 279 279
275 274 272 271 269 268 267 266 265 266 267 267 266 265 264 263 262 262 260 260 259 259 258 258 257 258 257 258 259 258 259 260 259 259 260 261 261 260 261 261 262 262 262 262 264 265 265 265 264 265 266 266 266 268 268 269 270 271 271 271 270 269 268 268 268 269 268 267 266 268 267 266 266 266 267 267 268 269 270 271 271 272 273 275 277
273 272 270 269 269 268 267 266 266 265 265 265 263 262 262 262 261 260 259 259 259 259 258 257 258 258 257 257 258 257 258 259 258 258 259 260 260 260 261 261 263 264 264 265 265 266 266 266 266 266 266 265 266 267 269 273 272 274 271 270 269 268 268 268 270 272 267 266 265 264 264 264 264 264 264 265 266 266 267 269 269 269 270 272 273
273 271 270 270 269 268 267 266 265 264 264 263 261 261 261 261 260 259 260 259 258 257 257 258 258 258 257 257 257 257 257 257 258 258 259 259 260 262 262 262 263 266 268 269 269 267 267 267 267 268 268 267 267 269 273 274 274 274 274 273 272 272 272 270 271 271 267 264 263 263 263 263 263 263 263 264 264 265 266 266 267 269 269 270 271
271 269 269 269 268 267 266 265 264 263 262 261 260 260 260 259 259 260 259 258 258 258 258 258 257 257 257 257 258 258 257 258 258 258 258 259 260 261 264 266 267 267 267 268 269 269 270 270 268 267 268 272 273 273 273 273 273 273 273 272 272 271 272 271 271 266 263 263 262 262 262 263 263 263 263 263 264 264 265 265 266 267 268 269 270
Wind_Speed
10 11 13 13 14 12 11 11 11 12 13 13 14 13 14 12 11 12 10 9 8 8 7 6 6 4 3 3 3 3 2 1 2 1 1 1 1 3 4 4 4 5 5 4 5 5 6 6 6 7 7 7 7 6 6 6 6 6 6 6 8 8 7 6 7 9 11 12 10 13 14 14 15 16 16 15 14 12 11 11 10 11 11 11 11
8 9 11 13 12 13 11 10 13 16 14 14 15 15 14 14 13 11 9 9 9 8 7 6 5 4 4 4 3 2 1 1 1 2 1 1 3 4 5 5 5 5 4 5 5 6 6 6 6 7 7 7 7 7 7 7 7 6 5 6 6 7 8 6 7 8 8 10 15 15 12 9 11 13 14 14 13 11 10 11 11 11 11 10 10
10 12 12 13 15 15 13 12 13 16 15 15 15 15 14 13 13 12 10 10 8 7 6 5 4 4 3 3 2 1 1 0 1 1 2 3 4 5 5 5 5 4 5 5 5 6 6 6 7 7 7 7 6 6 6 6 5 6 6 6 7 6 7 6 6 4 9 10 11 13 14 16 10 6 6 5 5 8 10 12 12 11 12 11 10
13 14 15 15 15 15 13 14 14 14 13 14 15 16 11 12 13 12 11 10 8 8 6 5 5 5 4 2 2 1 1 0 2 4 4 5 6 5 5 4 5 5 5 6 6 6 6 7 7 7 7 7 7 6 6 6 5 5 5 6 6 8 6 7 5 6 6 8 10 8 13 11 16 7 10 12 11 15 15 13 10 10 11 11 10
13 14 14 15 16 18 17 15 13 14 15 15 15 14 9 14 13 13 11 10 9 8 8 7 6 5 4 3 1 2 2 3 4 5 5 5 5 5 4 4 6 6 5 6 6 7 7 7 7 7 8 7 6 6 6 6 6 6 6 6 6 7 9 8 7 7 7 6 7 10 9 8 10 14 17 17 5 7 8 10 11 14 14 12 11
14 16 17 17 17 15 14 14 16 15 16 15 14 12 12 12 12 12 9 9 9 10 9 7 6 5 5 4 4 4 5 5 5 5 4 4 3 3 5 5 6 6 6 6 6 6 7 7 7 8 8 7 6 5 6 6 6 6 6 6 7 8 8 9 9 7 7 7 8 9 9 11 15 16 12 15 13 10 13 12 12 12 10 12 13
11 12 13 15 16 15 16 17 18 17 15 13 12 13 14 11 11 11 10 9 9 10 10 7 7 6 6 5 4 4 4 4 3 2 3 3 3 5 5 5 5 6 6 6 6 6 7 7 8 8 8 7 6 6 6 6 6 6 5 6 7 6 7 9 10 8 7 8 8 10 12 13 14 13 13 14 18 14 7 11 12 13 15 16 16
12 14 15 15 16 18 20 20 17 16 13 13 13 12 14 12 12 11 9 9 8 9 10 8 7 7 6 6 5 5 6 5 4 3 4 4 5 6 6 5 5 5 6 6 6 7 7 8 8 8 8 7 6 6 6 6 6 6 7 8 7 7 8 9 10 8 8 9 6 8 10 11 13 15 16 14 15 18 21 11 11 14 13 14 15
13 12 15 16 17 18 16 16 15 13 12 14 13 12 11 11 12 11 11 10 10 11 10 9 7 7 7 7 7 6 6 5 4 4 4 5 6 6 6 6 6 6 6 7 7 7 8 8 8 8 8 7 6 6 6 7 8 9 9 8 8 8 8 8 9 9 9 9 8 9 9 10 11 12 13 14 13 15 19 18 16 12 13 15 14
10 12 11 13 14 14 14 12 14 13 12 11 11 10 11 10 12 13 13 10 10 11 10 10 9 8 8 8 8 7 6 5 5 5 5 5 6 7 6 6 5 5 5 6 7 8 8 8 8 8 8 7 6 7 8 8 9 9 10 10 9 10 9 9 10 10 9 10 10 9 10 9 10 10 11 11 14 15 17 19 18 17 17 14 13
9 10 10 10 10 11 12 14 14 12 11 13 12 13 12 12 13 15 14 10 12 12 12 11 10 9 9 9 10 9 8 6 6 6 6 6 6 6 5 5 5 6 5 6 7 8 8 8 8 7 7 6 7 7 8 8 8 8 9 10 11 11 9 10 12 13 12 12 12 11 13 13 11 11 10 10 11 13 14 16 18 18 18 19 16
8 9 9 10 10 11 12 14 14 14 13 15 13 13 12 13 13 15 14 13 12 11 12 11 10 10 10 10 10 10 9 7 7 7 6 6 6 6 5 5 6 6 6 7 7 7 6 6 7 7 7 7 7 7 7 8 8 8 8 8 9 10 11 11 13 14 15 13 14 13 14 14 14 13 12 11 11 13 14 16 16 17 20 17 14
9 9 10 11 12 13 15 15 15 17 17 17 15 13 12 13 16 16 15 14 13 12 13 12 11 11 10 10 10 8 9 8 7 6 5 5 5 5 5 6 6 6 6 7 7 7 6 7 6 6 6 6 7 7 8 9 9 9 9 10 10 11 10 11 12 14 14 14 13 13 14 14 15 15 14 14 13 13 14 16 16 16 19 22 17
9 9 10 11 12 13 14 15 15 15 18 18 17 15 13 13 16 16 15 14 12 13 13 13 12 11 11 10 9 8 8 7 6 6 6 5 4 5 6 6 6 7 7 8 6 6 6 7 7 8 8 8 9 9 10 10 10 10 10 11 12 11 12 14 15 16 16 17 15 15 15 15 15 15 15 13 13 13 14 16 17 15 18 21 19
7 9 11 12 12 14 14 15 16 17 19 18 16 16 14 15 16 17 15 15 14 14 12 13 11 11 10 9 8 7 6 6 6 5 5 5 5 6 6 6 7 7 7 7 7 7 8 8 8 8 8 9 9 9 9 10 11 11 12 13 13 12 13 14 14 15 16 17 18 16 16 16 16 15 14 14 14 15 16 16 15 17 17 19 20
8 8 9 10 11 12 11 11 12 11 15 15 16 16 16 17 17 17 16 15 14 13 12 12 11 10 10 10 9 7 5 5 5 5 5 5 6 7 7 8 7 7 7 8 7 7 8 8 8 9 9 9 10 10 11 11 12 13 13 13 14 11 13 15 15 16 17 19 18 17 17 18 16 15 14 14 14 15 15 15 15 17 17 17 17
8 8 7 9 9 11 11 12 12 13 14 17 18 18 19 17 18 18 16 14 14 14 12 12 11 10 10 9 8 8 8 7 6 6 6 6 7 7 7 8 7 7 7 6 7 7 7 8 8 9 9 9 10 12 13 13 13 13 13 14 14 14 14 15 15 15 16 16 17 19 18 18 17 16 15 15 17 17 18 17 16 16 16 17 16
7 7 6 8 10 11 11 11 14 15 15 14 15 14 14 14 17 17 16 16 14 13 12 11 11 10 10 9 9 8 7 7 6 6 6 6 7 7 7 7 7 6 6 6 7 7 7 8 8 9 9 9 11 12 12 13 13 12 14 14 14 15 15 14 15 15 16 16 17 18 17 17 17 16 17 18 18 18 17 17 17 16 16 18 16
7 9 9 9 11 12 14 14 13 13 13 13 13 12 12 13 14 15 16 15 14 11 10 9 9 7 7 9 9 8 7 6 5 6 6 7 8 7 7 7 6 7 6 6 6 7 7 7 7 8 9 10 11 12 12 12 12 12 13 13 14 14 15 16 15 15 15 15 18 20 19 19 17 19 18 18 18 17 16 16 16 16 17 18 18
8 8 9 10 11 12 13 14 15 15 14 13 13 12 15 15 15 14 13 13 12 12 11 11 9 8 8 7 8 7 6 6 6 6 6 7 7 7 7 7 7 6 6 6 6 7 7 8 7 8 10 11 11 11 12 12 12 12 12 12 12 14 16 17 17 16 14 16 18 19 20 17 17 17 19 16 16 17 16 16 15 14 13 14 14
9 9 9 10 11 11 12 12 11 11 11 12 13 16 15 13 15 15 16 14 13 12 11 10 9 9 9 9 8 7 8 6 7 7 7 7 6 6 6 6 6 6 5 6 6 7 7 8 9 10 10 11 11 12 11 12 12 13 13 14 14 15 17 16 16 17 18 17 18 20 19 20 18 18 19 17 16 18 18 17 18 15 14 14 15
10 9 8 8 9 10 10 10 10 11 12 15 14 14 15 16 15 15 14 13 13 12 11 11 9 9 10 9 8 7 7 6 7 7 7 6 6 6 5 5 6 6 6 6 7 7 7 9 10 10 11 11 12 13 13 12 13 13 14 11 12 14 16 17 17 18 17 16 17 19 20 19 20 21 21 21 18 18 18 17 17 14 15 16 15
8 8 8 8 8 9 11 13 14 15 14 15 14 16 16 17 15 14 14 14 13 12 11 10 10 9 9 8 8 7 7 7 7 6 6 6 5 6 5 5 6 5 6 6 7 8 9 10 10 10 10 11 12 12 12 12 13 14 15 14 13 15 16 17 18 18 18 17 19 19 21 19 17 20 21 19 19 20 19 19 20 16 15 16 14
7 6 6 7 7 9 10 12 13 14 15 17 15 15 14 14 14 14 15 15 14 12 11 10 10 9 9 9 8 7 8 7 7 6 6 6 5 5 5 5 5 5 6 6 7 8 9 9 10 11 11 11 12 12 12 12 13 14 14 15 15 15 15 16 18 18 18 18 19 20 20 19 19 21 21 19 18 18 18 17 19 17 17 19 17
8 9 9 8 9 11 13 13 14 13 13 14 15 15 15 15 14 14 13 14 12 12 11 11 10 11 10 9 9 8 7 7 7 5 6 5 5 5 4 5 5 6 6 6 7 7 7 8 8 10 11 12 12 12 12 13 13 13 14 15 16 15 15 16 17 18 18 19 19 20 20 19 19 20 20 18 17 20 18 18 18 17 16 16 16
11 9 8 12 12 10 10 13 12 13 13 14 14 15 15 14 14 13 14 13 12 11 11 11 10 10 9 9 9 8 8 7 7 6 5 5 4 4 4 4 5 6 6 7 7 6 6 8 9 10 11 12 12 12 13 14 14 14 14 14 15 15 16 17 18 19 19 18 18 19 18 18 19 19 19 18 18 20 18 18 18 17 17 16 17
9 10 9 7 8 14 15 13 13 13 13 13 15 15 15 14 15 13 13 13 12 12 11 11 10 10 9 10 9 8 7 7 6 5 4 4 4 3 4 5 5 6 6 7 6 7 7 8 9 10 11 12 12 12 12 13 13 14 15 15 15 16 17 17 18 19 20 21 20 19 19 19 19 19 20 19 19 19 18 20 18 18 18 17 18
9 9 11 14 14 13 13 15 14 14 14 13 14 15 16 16 16 14 14 12 10 12 12 11 10 9 9 9 8 8 7 6 5 4 4 3 3 4 4 4 4 6 6 7 6 7 7 7 9 10 11 11 12 12 13 13 13 13 14 15 16 16 17 18 19 20 20 20 21 20 20 20 19 19 19 19 19 18 16 18 17 16 17 18 18
13 12 12 12 13 14 15 15 15 15 17 17 15 14 13 12 12 13 13 13 12 12 12 11 10 9 9 9 8 7 6 6 5 4 4 4 4 4 4 4 5 5 5 6 6 7 8 9 9 10 11 11 11 11 10 10 11 13 13 15 16 16 17 17 17 17 18 18 20 20 20 21 22 25 30 27 25 22 16 16 17 17 18 17 17
14 14 14 15 15 13 14 14 15 18 18 17 16 16 16 16 15 14 13 12 12 12 12 11 10 9 8 8 8 6 6 5 5 5 4 4 4 4 4 4 5 5 5 5 6 7 8 9 9 10 10 10 10 9 11 17 17 15 16 16 16 17 18 18 19 20 21 21 20 19 20 29 30 31 31 32 32 32 32 25 20 17 17 17 16
13 12 14 14 14 13 13 16 18 19 20 18 17 17 16 15 14 14 13 12 11 11 10 10 9 9 8 8 7 7 6 6 5 5 4 4 4 4 4 4 5 5 5 6 6 7 8 8 9 9 10 9 9 9 17 19 21 23 18 17 17 17 17 18 19 20 20 20 20 20 20 23 26 29 28 32 31 32 32 33 34 34 29 22 18
11 14 14 12 13 15 17 18 18 18 19 17 17 16 16 16 15 14 12 12 10 10 10 9 9 9 8 8 7 7 7 6 6 5 5 4 4 4 4 4 4 5 5 4 6 7 7 8 7 9 10 10 10 14 20 20 22 23 22 18 17 17 17 19 18 20 19 19 21 21 19 17 18 20 20 22 26 31 32 32 33 33 33 34 33
19 18 12 14 15 17 18 17 15 16 18 19 18 16 18 16 15 13 12 12 11 10 9 9 9 9 9 8 7 7 7 6 6 5 4 4 4 4 4 4 5 4 4 5 6 6 7 7 8 9 10 10 11 15 20 22 22 23 24 22 16 17 17 18 19 20 20 20 19 19 19 17 16 27 23 21 20 20 26 31 31 31 31 32 32
20 16 12 14 11 11 12 15 16 17 16 16 17 18 15 13 12 12 12 11 12 10 9 9 9 8 8 8 7 7 7 6 6 5 5 4 4 4 4 4 3 4 4 5 5 7 7 7 8 9 10 11 12 15 21 23 23 24 25 22 17 18 17 18 20 19 18 19 20 20 19 19 18 19 18 19 19 22 19 20 20 20 20 24 29
20 12 10 11 10 8 9 10 12 13 14 14 13 12 12 11 12 12 10 12 10 11 9 9 9 8 8 8 8 7 6 6 5 5 5 4 4 3 4 4 3 3 4 4 5 6 7 8 9 9 10 11 11 19 22 24 24 25 25 24 17 17 17 17 17 18 19 20 20 19 20 21 20 19 18 21 18 17 17 16 18 19 21 21 22
13 11 11 10 12 13 14 13 10 11 11 13 14 12 12 11 10 11 11 10 11 10 10 9 9 9 9 8 8 7 6 6 5 5 5 4 4 3 3 3 3 3 3 4 5 6 7 8 9 10 11 12 12 20 23 24 25 25 27 18 16 16 16 16 18 19 20 20 20 20 20 21 21 21 24 29 26 20 18 18 18 17 19 19 21
9 7 9 9 11 10 9 9 12 12 12 13 12 12 12 12 11 10 11 11 11 10 10 10 9 9 8 8 8 7 7 6 6 5 4 4 3 3 3 2 2 3 3 4 5 6 6 8 9 10 11 12 13 18 23 24 24 26 22 16 16 14 15 17 19 19 20 20 20 19 20 19 20 20 25 30 30 28 19 20 19 19 16 16 16
4 1 2 4 6 7 9 12 12 12 11 12 13 14 13 13 12 12 12 12 11 11 10 10 9 9 8 8 7 7 6 6 5 5 4 3 3 2 3 2 2 2 4 4 5 6 7 7 9 11 11 13 16 19 24 24 25 26 23 18 16 16 18 19 19 18 17 18 20 31 27 22 22 22 27 30 31 25 20 20 19 20 20 19 19
6 7 7 7 9 11 11 11 14 14 13 13 14 15 13 12 12 12 12 13 11 11 11 11 10 9 8 7 6 6 6 6 5 4 4 3 3 3 2 1 1 2 4 5 5 6 7 8 9 11 16 17 15 17 22 24 25 25 22 16 16 16 16 17 17 17 17 18 20 21 28 26 24 25 32 31 32 26 20 18 17 18 19 18 18
5 6 8 9 11 13 13 14 15 16 14 16 15 14 17 14 12 12 12 12 12 11 10 9 9 9 8 7 6 6 5 5 5 4 3 3 2 2 1 0 1 2 3 4 5 6 8 9 10 11 12 13 15 16 18 25 25 26 27 19 15 16 17 17 16 17 19 17 17 20 22 27 30 31 30 31 30 30 21 19 18 17 18 20 14
9 8 10 11 11 14 16 16 12 12 12 13 12 14 13 11 12 12 12 11 11 10 10 10 9 8 8 7 6 5 5 4 4 3 3 2 2 1 1 1 1 2 3 5 6 7 8 10 10 12 12 14 14 17 19 25 26 27 28 24 16 17 17 17 17 19 18 20 20 18 17 24 29 30 30 31 32 31 29 21 19 19 18 18 20
5 8 10 10 10 10 10 10 11 14 13 15 18 21 12 9 10 11 10 10 11 11 10 9 9 8 7 6 6 5 4 4 3 3 3 3 2 1 0 1 1 2 4 5 6 7 8 10 11 12 12 13 15 19 18 23 26 28 28 30 20 17 20 19 22 20 20 19 20 20 18 23 30 31 31 31 33 32 33 22 21 28 32 32 24
11 10 8 11 12 13 13 13 11 12 12 13 18 19 18 14 9 10 10 10 10 10 10 10 9 9 7 7 6 6 5 4 3 3 3 2 2 2 1 1 1 3 3 6 8 8 9 11 11 11 11 12 14 14 21 20 25 28 28 28 30 26 31 22 20 20 20 21 20 20 20 28 31 32 33 34 34 34 29 23 31 31 31 33 28
6 9 14 14 11 11 11 11 12 12 14 16 20 19 19 17 11 9 10 10 10 10 10 10 9 8 8 6 6 5 5 4 3 3 3 3 1 1 2 2 2 2 3 6 7 8 10 11 10 11 12 12 13 14 18 23 21 27 27 29 30 31 31 22 21 19 20 20 20 20 22 35 35 34 34 34 34 33 26 31 31 32 31 30 20
12 12 13 12 14 18 15 13 11 10 15 13 15 21 19 18 10 10 11 12 11 11 10 10 9 9 8 7 6 5 5 4 3 3 3 2 1 1 2 3 2 2 3 5 6 9 9 9 10 12 12 12 13 14 15 16 25 26 27 29 30 31 31 31 21 17 17 19 25 33 34 32 31 30 32 31 27 26 29 28 29 29 27 16 16
9 9 12 12 14 16 15 16 12 13 12 15 16 17 22 13 12 10 11 11 12 11 10 10 9 8 8 8 8 6 4 3 2 2 2 2 2 2 3 2 2 2 4 5 7 8 7 9 10 11 12 13 14 13 12 14 17 19 22 27 30 29 29 30 26 20 26 29 28 29 30 28 25 23 19 17 15 15 20 23 26 26 16 15 15
14 14 15 15 18 15 18 18 18 12 12 13 17 10 12 13 13 12 11 11 11 12 11 10 9 9 8 7 8 6 5 3 2 2 2 2 2 2 3 2 0 2 4 6 7 7 8 9 10 11 13 13 13 12 13 14 14 16 15 18 20 20 25 25 18 16 19 16 19 20 19 23 20 25 23 21 20 19 15 14 12 11 11 13 14
11 13 16 18 17 19 19 18 15 14 12 15 16 13 10 10 11 11 10 11 11 10 11 10 10 8 7 7 6 7 6 4 3 3 3 3 2 3 3 1 1 2 4 6 7 8 9 9 10 11 11 12 13 12 13 14 15 17 17 17 17 17 17 16 16 16 16 16 16 17 18 14 14 13 14 12 12 12 12 12 11 11 11 12 17
15 15 22 22 18 17 20 18 15 12 13 13 13 11 11 13 12 11 13 12 10 10 9 10 8 7 7 6 6 6 4 4 4 3 2 2 2 3 3 2 4 4 5 6 7 8 8 8 8 10 11 11 12 13 13 21 20 25 21 18 17 17 18 17 19 24 17 14 13 14 14 14 14 15 14 13 13 13 13 12 13 12 11 12 12
12 12 15 13 19 24 19 19 14 14 13 14 13 12 11 10 12 12 10 13 12 10 9 8 6 7 7 7 6 5 5 4 4 3 2 2 4 5 5 3 3 6 9 11 10 7 9 9 9 8 9 12 12 14 24 28 27 28 28 28 26 26 25 21 24 25 17 12 13 13 13 14 14 14 14 14 14 14 14 14 13 14 12 10 12
15 15 15 18 18 17 19 21 16 15 14 13 13 13 12 11 12 12 11 11 13 10 7 6 6 5 7 7 6 6 5 4 4 4 2 1 2 3 3 8 9 8 9 10 10 11 13 14 11 8 10 17 20 23 25 25 27 27 28 27 27 26 26 26 26 17 12 12 13 13 14 14 14 13 13 14 14 14 14 14 14 13 11 11 11
Wind_Direction
210 197 181 172 172 173 175 168 169 169 175 175 175 179 182 177 175 177 171 169 174 173 178 179 180 172 172 188 175 152 157 137 172 164 192 238 251 266 261 257 264 272 271 271 273 272 267 268 263 259 252 254 254 257 262 270 272 272 280 279 281 285 287 287 295 301 299 296 295 291 287 271 264 260 254 253 253 253 252 252 250 255 256 258 260
174 180 169 163 172 173 167 170 171 177 184 177 180 183 183 181 181 176 172 177 185 182 172 177 179 183 168 163 155 147 150 175 170 160 204 238 252 253 256 259 263 271 275 277 272 268 269 266 264 261 258 259 260 263 262 262 263 262 273 283 270 279 285 290 297 306 305 318 319 314 294 280 271 265 252 247 255 256 259 262 264 265 263 265 268
197 203 177 178 174 172 176 180 184 185 178 180 182 181 181 180 184 180 174 176 178 173 167 172 164 146 164 135 142 111 132 0 312 277 259 253 252 251 255 258 267 269 273 273 272 263 262 265 265 264 259 260 263 261 258 258 260 267 271 277 296 282 280 277 283 308 307 311 298 295 312 325 309 251 250 228 259 285 281 273 274 274 273 273 273
200 192 186 183 177 178 180 184 183 181 176 182 187 186 177 182 185 178 173 176 171 167 169 157 145 128 125 105 98 258 297 221 265 260 248 241 245 240 246 257 267 271 268 266 261 263 266 269 269 263 262 259 261 265 265 265 261 265 269 275 283 292 290 291 283 290 288 316 314 318 304 302 302 308 326 296 290 278 272 273 272 276 284 284 283
195 192 190 185 183 187 186 182 176 186 185 187 187 184 171 184 180 174 171 175 169 161 165 154 138 145 141 129 163 215 238 242 239 233 218 218 227 224 233 252 265 267 267 264 265 268 265 262 264 266 265 261 261 263 265 264 267 266 268 270 271 283 294 291 287 274 268 264 287 311 311 293 290 310 329 304 302 301 304 295 290 290 289 288 286
192 190 188 187 188 185 180 179 184 192 192 191 184 178 173 182 174 172 169 171 167 164 163 161 168 177 173 185 198 208 216 205 218 224 213 226 239 249 249 246 255 261 262 265 265 266 268 267 267 266 264 262 258 265 268 268 258 256 257 265 269 266 274 287 284 274 258 256 253 256 260 283 305 309 316 304 310 290 289 285 286 285 287 289 283
204 194 184 184 187 183 183 187 191 192 194 178 174 179 182 176 168 171 170 168 163 162 160 163 169 183 192 202 219 228 234 233 236 254 252 261 269 268 267 258 256 267 273 271 270 272 274 274 270 267 266 266 264 264 267 269 271 262 263 258 263 269 266 271 275 285 278 254 248 250 257 265 274 290 293 305 303 304 276 290 290 284 286 282 280
193 193 188 186 184 185 189 193 189 192 178 170 176 180 182 178 174 174 167 164 155 159 163 169 174 179 185 198 213 227 230 239 223 247 259 268 266 270 278 275 272 269 275 278 276 277 274 272 265 263 264 265 268 269 272 274 274 267 255 259 263 260 258 262 276 278 275 281 269 266 263 263 264 264 267 276 287 298 301 288 272 287 284 276 278
190 185 189 187 188 191 191 189 189 177 174 175 180 179 176 175 174 170 171 166 160 161 163 170 178 181 185 195 211 221 230 235 233 234 252 254 265 268 269 277 277 269 262 267 268 266 262 260 261 261 262 267 265 270 268 266 262 264 264 257 253 257 255 264 270 272 269 270 276 269 267 266 268 265 267 267 270 288 288 291 294 291 284 281 276
197 197 187 190 191 189 187 177 177 183 179 175 176 171 176 172 175 174 174 168 159 161 163 165 173 174 187 197 204 216 215 223 223 229 233 242 254 260 264 268 270 272 265 261 264 258 258 259 260 262 263 266 264 270 270 266 262 258 258 256 259 261 260 259 260 267 269 270 265 272 270 270 266 264 258 260 265 258 273 291 293 292 287 281 281
187 188 188 189 185 178 173 180 181 177 176 178 180 180 179 175 177 177 173 163 161 164 166 167 172 181 190 196 201 211 215 220 224 225 228 233 247 253 259 267 275 277 280 274 261 258 256 259 261 264 270 266 265 267 263 263 263 262 260 257 256 255 257 261 262 262 264 266 265 262 263 262 261 265 267 266 269 274 276 274 282 288 286 287 277
173 177 180 171 168 179 179 187 180 178 177 185 188 183 180 180 176 175 170 165 165 164 168 170 174 184 192 194 201 206 208 210 219 227 229 238 250 265 269 275 274 273 269 266 258 252 259 266 265 267 266 265 264 264 266 265 265 263 261 259 260 257 257 259 262 263 262 262 262 261 258 257 260 261 265 268 266 269 272 276 279 289 289 276 277
177 180 176 180 184 181 184 183 174 180 186 186 186 182 181 183 179 175 172 167 166 163 170 171 175 184 189 195 200 201 206 211 218 228 229 238 246 253 261 266 269 265 258 259 258 257 264 269 268 270 275 271 272 268 267 264 265 264 262 262 260 262 261 260 261 259 259 258 263 260 258 255 256 261 263 264 265 268 265 270 270 276 278 286 285
183 178 181 184 184 183 183 184 181 182 184 185 183 179 180 182 182 179 171 167 164 167 171 172 180 184 189 192 196 197 202 205 215 221 227 235 242 251 253 257 263 262 268 265 270 273 269 269 271 273 272 274 271 269 269 267 266 266 266 264 264 265 266 262 259 260 259 258 258 260 257 256 257 258 258 259 259 260 262 264 274 272 273 277 282
189 187 190 189 188 185 185 187 186 187 184 181 181 182 177 181 182 178 165 169 167 169 169 174 179 184 186 190 192 193 195 200 210 219 225 231 240 247 251 253 256 261 264 273 278 278 278 276 276 278 278 277 275 274 271 270 267 268 270 271 271 268 265 260 258 257 257 256 254 253 256 255 254 254 253 254 256 255 259 265 268 274 271 269 274
194 198 198 197 188 187 187 191 195 194 188 185 181 177 179 183 179 177 167 166 168 168 172 175 177 180 183 185 187 186 191 197 209 214 222 226 239 246 251 253 254 261 265 268 272 273 277 279 281 280 281 279 277 276 276 276 275 273 271 270 265 262 262 259 259 260 257 256 255 254 255 254 253 253 253 253 252 253 255 259 261 261 266 273 269
199 204 199 190 189 194 194 192 191 191 189 191 188 184 182 173 173 173 165 165 170 170 169 173 173 172 179 178 179 186 193 199 204 213 220 231 240 244 247 251 258 259 263 265 270 272 274 278 282 284 282 281 282 282 279 276 276 273 271 270 267 266 263 260 259 259 258 257 256 254 253 255 254 254 253 251 251 254 258 260 255 254 255 261 267
197 204 198 190 193 196 197 200 196 195 194 192 188 181 179 173 173 168 163 167 168 166 167 168 167 170 171 175 181 186 189 198 208 216 224 231 235 239 244 249 250 257 264 269 271 274 279 279 283 287 287 288 287 283 278 277 275 272 270 269 267 267 265 263 261 259 259 256 256 255 252 253 254 252 252 251 251 254 256 252 252 253 253 256 261
207 208 200 195 197 200 201 200 197 197 192 189 182 169 170 170 174 169 167 164 159 160 160 160 162 163 168 173 178 181 187 194 206 214 223 233 236 241 247 255 263 262 262 268 277 283 284 285 284 289 292 289 286 280 279 276 273 271 270 269 267 265 263 262 261 260 259 259 258 256 253 253 254 254 252 254 254 252 250 250 250 250 249 250 257
217 203 201 201 202 202 200 197 194 192 185 181 171 167 176 174 169 166 158 156 157 159 157 158 160 160 162 164 174 178 182 193 204 212 224 231 239 246 253 258 260 268 271 276 279 282 283 286 288 290 293 284 280 280 278 276 274 272 272 270 269 267 266 265 266 263 262 261 260 257 254 251 254 256 257 255 255 251 249 249 249 252 255 255 261
223 206 199 199 201 197 199 196 193 187 183 176 175 179 177 172 172 166 162 161 159 159 157 157 156 164 165 171 174 176 185 193 204 217 229 238 243 247 253 260 273 270 276 280 277 279 285 284 291 290 286 284 281 280 280 279 276 274 273 274 274 271 271 270 270 270 266 264 263 258 255 257 257 259 260 258 257 258 256 255 254 254 260 263 265
220 213 200 199 196 195 193 188 183 177 181 182 178 173 177 175 174 165 161 161 160 160 162 155 158 164 171 174 175 177 184 194 205 216 228 233 242 247 252 264 264 272 275 276 277 281 280 290 291 283 284 282 280 281 281 279 277 278 278 276 275 274 273 272 272 271 271 269 264 263 262 263 263 258 258 260 259 258 257 255 252 253 254 255 256
210 210 200 198 193 192 190 189 191 191 188 181 176 181 179 174 167 167 161 164 161 158 157 156 160 166 172 172 175 181 186 196 207 218 225 230 240 248 251 258 266 273 278 275 282 285 290 291 283 284 285 283 281 280 280 278 278 279 280 278 275 275 275 275 274 273 274 274 270 268 270 270 265 263 260 259 259 259 257 257 257 251 253 258 262
221 210 203 195 186 184 184 190 192 191 184 184 182 179 174 172 168 163 164 158 158 155 155 156 160 166 168 171 179 182 188 198 207 216 221 230 239 247 254 256 267 277 277 284 284 289 293 293 292 289 286 282 280 279 279 279 278 279 279 279 278 277 275 274 274 275 276 275 272 273 273 271 267 265 263 263 262 260 258 255 253 254 257 264 271
211 214 206 191 190 193 198 197 197 192 188 182 180 178 173 172 165 166 161 157 153 155 155 159 164 164 171 176 180 183 190 197 206 212 222 232 241 244 249 264 268 271 278 284 285 286 288 287 288 290 292 287 284 281 280 280 279 277 278 278 278 278 274 273 273 272 273 273 272 271 272 272 269 267 266 263 263 260 258 258 258 256 254 256 260
210 200 187 202 204 202 199 201 195 193 187 183 179 176 173 167 168 162 155 155 156 154 157 158 162 166 171 179 180 184 191 196 201 212 220 225 232 246 253 263 271 275 282 279 280 284 286 289 287 289 288 287 287 283 283 285 285 285 280 281 277 273 272 269 268 267 265 262 263 264 267 267 268 267 266 265 264 265 264 260 256 254 254 256 258
216 207 205 201 203 208 206 197 198 189 186 184 180 175 170 165 164 162 157 156 155 155 157 159 163 169 172 178 180 184 185 188 194 201 205 216 229 243 254 261 268 272 272 274 277 282 283 285 284 289 290 289 289 288 287 285 284 282 284 281 276 272 267 266 262 261 261 258 255 254 254 255 258 259 260 262 263 262 260 260 261 261 259 257 257
221 211 206 211 212 206 200 201 192 190 184 183 184 177 171 168 165 161 159 155 155 155 155 159 163 172 176 176 178 178 179 183 184 186 200 217 229 237 247 253 259 265 267 273 279 282 285 285 287 290 295 293 290 292 291 292 293 290 283 279 273 270 268 266 265 262 259 256 252 248 249 249 249 254 255 256 256 259 258 258 256 256 257 256 256
217 217 217 216 212 205 201 195 193 184 186 184 179 174 166 164 159 159 159 158 154 153 155 159 168 173 175 170 167 170 173 172 177 182 196 204 218 236 243 253 256 261 267 270 278 282 283 285 287 289 294 297 293 292 295 297 293 288 283 279 277 272 269 268 268 267 266 265 262 255 251 248 244 249 254 253 253 252 252 254 254 253 255 255 256
212 211 213 213 213 205 196 190 187 189 186 183 180 176 173 168 165 162 160 156 153 155 156 162 169 172 164 163 163 161 165 164 170 183 188 200 217 231 239 247 254 260 269 275 278 281 282 284 289 294 297 298 295 290 282 282 285 289 291 290 289 287 286 285 284 284 282 279 277 274 267 256 246 246 251 255 256 257 256 254 255 251 249 251 250
219 213 209 210 207 202 191 190 193 190 187 183 180 175 169 165 161 160 157 156 153 150 156 163 166 162 159 158 162 164 164 169 171 178 186 199 220 225 239 247 252 257 263 270 271 276 280 284 289 294 296 290 285 282 287 289 293 295 296 293 291 288 286 284 284 284 283 284 281 277 275 275 267 255 252 255 258 258 258 258 257 257 256 253 254
251 215 215 200 201 199 197 197 195 189 183 180 175 171 166 168 162 160 154 149 148 147 153 160 158 156 159 161 162 160 165 171 171 183 188 197 214 228 237 245 251 258 264 265 270 271 280 289 290 295 294 292 289 288 296 296 298 298 297 296 293 292 290 287 284 283 282 282 282 280 276 273 270 266 256 253 250 252 255 258 261 261 260 259 256
273 262 206 201 201 201 199 196 187 183 184 185 172 163 172 166 160 156 138 147 147 148 150 156 156 159 161 162 160 164 169 173 179 178 183 197 212 227 234 238 243 252 258 257 268 281 284 293 295 299 297 293 291 291 301 303 303 302 302 301 294 290 287 287 288 287 286 285 283 281 281 275 272 272 265 265 261 254 252 252 258 258 259 259 258
273 263 221 205 201 201 197 188 185 186 183 172 168 168 164 150 138 131 140 144 144 147 152 154 155 161 162 162 165 165 173 173 173 177 188 203 208 221 232 241 241 244 248 263 268 275 282 291 298 299 298 297 293 294 304 306 307 306 305 304 297 295 292 290 288 286 284 282 280 280 279 277 275 274 270 264 262 258 256 260 258 261 260 260 260
277 269 217 206 195 186 178 179 181 168 158 152 154 149 127 124 135 139 141 142 146 147 153 156 158 162 162 165 166 170 172 170 172 179 191 201 207 220 232 234 230 237 248 266 276 281 288 289 292 294 296 296 292 301 306 306 307 306 305 307 299 293 286 280 280 281 281 281 281 281 281 281 281 279 276 275 268 259 253 252 250 252 252 253 254
277 264 248 199 183 188 186 185 149 138 150 153 154 137 134 139 138 140 142 143 145 149 153 156 160 166 168 169 168 170 170 169 171 180 187 199 203 216 229 238 240 249 260 268 276 283 288 289 289 294 296 295 293 301 306 306 304 304 306 305 298 291 286 286 285 287 284 281 279 277 277 276 275 274 273 274 275 274 268 259 253 248 245 243 246
272 238 228 198 188 182 169 140 149 154 145 154 137 133 132 134 143 145 143 144 146 151 158 162 164 166 170 168 170 168 166 168 172 178 182 195 200 218 229 226 243 265 278 278 281 285 288 294 295 292 294 292 292 298 301 304 305 307 308 302 299 292 289 290 290 290 289 285 281 278 277 278 278 276 275 274 274 273 270 266 259 256 248 248 249
249 121 146 165 171 151 146 150 144 148 149 137 140 142 141 143 145 146 148 149 152 157 159 160 165 166 167 164 166 163 163 168 170 173 176 193 201 224 220 228 250 288 289 286 291 290 287 291 295 292 287 293 296 295 297 302 303 303 305 305 302 298 293 292 288 282 281 281 279 279 276 276 277 276 277 276 275 274 272 272 270 265 263 260 256
191 181 171 164 159 148 140 134 146 151 156 143 144 144 141 144 148 151 149 153 161 159 161 162 162 156 158 153 154 161 162 164 165 163 177 197 203 207 226 230 265 283 283 288 294 295 294 294 287 282 286 292 289 293 299 302 301 303 308 306 301 293 287 288 290 291 288 287 283 283 280 276 275 275 276 275 272 269 265 264 266 270 269 260 258
169 171 157 139 128 126 143 156 165 165 148 150 148 149 156 150 153 149 153 158 161 158 148 142 140 144 146 147 153 157 159 157 151 158 187 203 193 209 207 343 314 285 297 302 304 301 297 289 289 288 290 288 294 296 297 298 300 303 306 306 305 303 297 289 289 291 294 290 292 293 289 285 282 279 279 278 277 276 276 277 278 276 274 274 274
170 161 137 142 155 159 165 167 156 138 142 145 145 144 152 153 148 153 159 153 138 130 132 135 137 138 140 145 145 156 158 150 151 169 185 188 182 197 198 24 295 306 306 304 301 292 296 303 301 299 295 294 292 294 295 297 301 305 307 308 305 304 302 300 301 302 299 301 300 296 295 292 288 286 284 282 279 275 271 270 268 269 268 272 274
144 148 149 146 149 143 131 133 140 144 149 155 158 166 153 142 148 157 143 120 120 127 127 130 138 135 134 138 142 148 156 145 159 175 181 166 157 177 137 80 352 330 315 298 302 311 314 307 303 301 295 293 294 295 300 301 302 304 304 305 304 303 308 309 307 303 301 298 297 299 297 293 290 288 286 285 282 279 276 273 270 269 272 274 275
154 164 175 149 151 157 160 148 141 137 142 156 164 162 143 134 141 123 116 120 123 124 128 131 129 129 134 142 145 153 149 142 167 181 163 152 167 162 150 110 34 341 319 320 326 324 319 313 306 304 301 298 298 297 299 301 302 306 309 311 312 312 312 313 307 301 301 300 300 298 296 296 295 292 287 282 278 275 275 270 269 269 270 271 273
178 171 166 161 145 141 124 129 140 149 155 159 166 153 150 154 130 120 120 119 124 128 131 128 130 135 138 144 151 151 136 142 168 173 151 142 132 143 119 83 34 354 336 330 331 325 319 310 308 309 308 306 305 304 300 298 302 312 314 315 316 315 314 314 309 304 302 300 302 301 302 305 305 303 299 292 285 278 271 269 268 269 270 271 273
169 175 168 168 153 152 146 146 151 143 131 144 132 150 156 142 132 131 137 137 136 135 135 134 138 142 144 148 151 142 133 143 169 169 150 149 159 124 98 65 45 352 327 323 318 319 306 305 311 311 309 308 309 304 300 302 313 313 316 319 318 318 317 317 313 306 304 303 306 310 312 312 311 310 308 301 291 285 281 279 278 277 278 275 273
153 157 171 166 139 129 135 135 140 147 149 140 155 149 154 146 138 145 147 143 140 136 134 137 139 141 145 150 137 125 128 145 174 153 132 137 140 118 83 62 31 329 315 311 311 299 296 313 310 309 310 310 310 306 305 313 312 316 322 321 322 321 320 318 316 310 310 315 319 318 317 317 317 317 320 319 300 282 279 279 277 276 273 266 263
173 169 156 156 149 147 152 152 151 161 149 150 146 153 128 138 149 151 148 142 137 133 130 138 139 139 146 150 137 138 142 153 164 148 138 146 160 122 95 81 290 295 304 304 297 304 317 316 311 311 311 312 312 311 318 319 317 325 325 326 328 326 323 323 320 318 323 328 323 321 320 322 323 324 326 330 337 335 322 309 304 299 292 284 264
161 160 165 150 159 161 161 156 152 156 152 142 137 132 137 134 140 143 139 138 132 137 140 145 144 144 147 146 131 132 142 146 149 153 149 159 160 140 116 154 230 286 292 300 309 317 318 316 313 311 312 317 316 317 323 322 329 332 331 332 331 329 329 328 326 326 336 330 324 322 327 327 327 331 334 337 336 331 323 320 315 314 309 309 306
169 174 169 174 170 162 161 157 152 150 145 142 135 134 141 146 142 139 146 139 131 127 124 134 141 139 133 131 127 142 149 141 144 135 146 173 183 151 141 206 240 235 260 289 304 310 314 312 313 312 317 316 319 324 326 331 333 334 336 337 336 334 333 335 334 338 338 330 332 335 334 334 338 339 341 339 337 330 326 320 316 318 318 320 317
175 160 178 162 169 153 158 154 151 154 152 145 138 137 138 140 140 147 144 130 131 132 133 142 151 140 132 133 132 137 142 144 134 125 137 173 198 193 203 219 261 287 306 314 314 313 318 320 314 313 322 321 321 325 331 335 337 338 340 342 341 339 339 344 347 345 337 338 343 338 338 336 336 340 341 340 334 330 326 325 323 322 322 321 326
164 158 171 174 174 166 157 153 159 157 147 137 135 140 138 140 147 152 146 133 135 136 135 144 149 146 146 136 137 137 144 139 135 137 151 135 63 24 257 240 246 279 307 313 325 329 331 329 329 325 328 328 328 335 338 340 341 341 343 345 347 345 348 354 357 351 345 349 342 341 340 338 337 335 336 334 330 326 325 324 322 324 321 322 320